Torna al catalogo

STARLINK-3619

AttivoComunicazioniVLEO
NORAD 51787·PAYLOAD·🇺🇸 United States

Lanciato Feb 25, 2022 da Vandenberg Space Force Base

Loading…

Prossimi Passaggi (prossime 24 ore)

TLE

AggiornatoSource: CelesTrak SupGP

Epoca: Sep 15, 2026, 01:08 UTC

1 51787C 22017V   26258.04770833 -.00029617  00000+0 -87502-3 0  2584
2 51787  53.1586 202.8621 0001412  84.8843 322.7064 15.34406058    13

Traccia STARLINK-3619 in tempo reale con AllMySat

Download on the App Store